レナード彗星

C/2022 U1 ( Leonard )

English version
Home page
Updated on January 3, 2023

---------------------------------------------------------------------

・ プロフィール

発見日 2022年10月20日
発見光度 19.8等
発見者 G. J. Leonard (Mt. Lemmon)

・ 写真集

・ 軌道要素

Epoch 2023 Feb. 25.0 TT = JDT 2460000.5
T 2024 Mar. 25.53734 TT                                 Rudenko
q   4.2029564            (2000.0)            P               Q
z  +0.0000777      Peri.   78.51532     +0.63693503     -0.17738771
 +/-0.0001549      Node    72.50314     -0.29931703     -0.95372459
e   0.9996734      Incl.  128.12868     +0.71043865     -0.24278179
>From 116 observations 2022 Sept. 23-Dec. 26, mean residual 0".5.

・ 光度変化

        m1 = 8.0 + 5 logΔ + 10.0 log r

---------------------------------------------------------------------

軌道要素はM.P.E.C. 2022-Y232に掲載されたものです。
光度グラフはComet for Windowsで作成したものです。

---------------------------------------------------------------------

Copyright(C) Seiichi Yoshida (comet@aerith.net). All rights reserved.